EDT,Max TemperatureF,Mean TemperatureF,Min TemperatureF,Max Dew PointF,MeanDew PointF,Min DewpointF,Max Humidity, Mean Humidity, Min Humidity, Max Sea Level PressureIn, Mean Sea Level PressureIn, Min Sea Level PressureIn, Max VisibilityMiles, Mean VisibilityMiles, Min VisibilityMiles, Max Wind SpeedMPH, Mean Wind SpeedMPH, Max Gust SpeedMPH,PrecipitationIn, CloudCover, Events, WindDirDegrees
2012-8-1,57,54,51,55,44,23,100,77,30,,,,0,0,0,18,10,26,0.03,6,Fog,256
2012-8-2,60,56,51,61,53,48,100,93,82,,,,5,1,0,29,17,34,0.00,7,Fog-Rain,278
2012-8-3,59,55,51,57,52,39,100,93,54,,,,20,5,0,41,30,45,0.00,7,Fog-Rain,290
2012-8-4,66,58,51,61,49,30,100,74,38,,,,20,7,0,34,25,40,0.00,2,Fog-Rain,255
2012-8-5,59,57,53,59,54,41,100,92,58,,,,20,4,0,56,35,69,1.25,2,Fog-Rain,232
2012-8-6,53,48,42,54,46,43,100,100,93,,,,0,0,0,66,48,70,0.00,1,Fog,302
2012-8-7,59,52,46,48,36,14,94,55,21,,,,,,,26,12,22,0.00,1,,272
2012-8-8,60,53,46,50,47,41,100,80,51,,,,0,0,0,33,21,24,0.00,3,Fog,266
2012-8-9,60,56,51,55,52,46,100,90,72,,,,20,2,0,23,18,31,0.00,5,Fog-Rain-Thunderstorm,246
2012-8-10,55,52,50,55,54,50,100,100,94,,,,20,1,0,44,28,48,2.53,6,Fog-Rain-Thunderstorm,216
2012-8-11,60,56,51,59,54,52,100,96,72,,,,1,0,0,33,22,40,0.08,6,Fog-Rain,212
2012-8-12,57,54,50,55,51,45,100,92,67,,,,4,1,0,36,21,33,0.01,7,Fog-Rain,248
2012-8-13,55,52,50,55,50,46,100,95,82,,,,5,0,0,26,19,28,0.00,2,Fog,290
2012-8-14,59,53,47,54,48,45,100,90,63,,,,20,2,0,22,14,26,0.00,6,Fog,284
2012-8-15,55,52,50,54,51,48,100,99,94,,,,20,1,0,28,16,34,0.50,8,Fog-Rain,247
2012-8-16,50,48,44,50,48,43,100,99,87,,,,0,0,0,51,22,58,0.35,7,Fog-Rain-Thunderstorm,347
2012-8-17,57,50,44,54,49,43,100,95,82,,,,20,4,0,48,35,46,0.04,7,Fog-Rain-Thunderstorm,284
2012-8-18,51,46,42,48,44,34,100,93,66,,,,4,1,0,32,20,18,0.00,5,Fog,273
2012-8-19,51,46,41,46,41,34,100,85,62,,,,5,1,0,14,9,,0.00,4,Fog,230
2012-8-20,53,47,41,45,39,30,87,74,58,,,,,,,20,9,16,0.00,4,,269
2012-8-21,50,46,42,46,43,39,100,93,66,,,,20,3,0,26,18,33,0.05,5,Fog-Rain,291
2012-8-22,53,48,42,45,40,36,93,77,54,,,,,,,37,21,29,0.00,3,,267
2012-8-23,51,48,44,50,47,43,100,94,82,,,,20,3,0,52,37,38,0.00,4,Fog-Rain,290
2012-8-24,57,52,48,48,46,39,100,83,66,,,,0,0,0,29,19,18,0.00,4,Fog,300
2012-8-25,60,55,50,59,46,23,100,75,30,,,,20,12,0,13,9,20,0.00,4,Fog-Rain,298
2012-8-26,59,54,50,57,50,43,100,83,63,,,,20,13,0,14,8,,0.00,3,Fog,214
2012-8-27,60,56,51,57,48,39,100,80,51,,,,0,0,0,48,23,54,0.75,3,Fog-Rain,268
2012-8-28,51,44,35,52,47,36,100,100,100,,,,0,0,0,63,43,72,0.61,,Fog-Rain,308
2012-8-29,44,37,30,41,36,30,100,93,76,,,,0,0,0,58,49,64,0.00,3,Fog,324
2012-8-30,50,44,39,46,39,32,87,77,50,,,,,,,63,43,61,0.00,3,,305
2012-8-31,53,50,46,54,44,30,100,81,47,,,,20,5,0,74,59,82,0.43,6,Fog-Rain,300